Regional Weather Roundup
Issued by NWS

Home | Current Version | Previous Version | Text Only | Print | Product List | Glossary Off
Versions: 1 2 3 4 5 6 7 8 9 10 11 12 13 14 15 16 17 18 19 20 21 22 23 24 25 26 27 28 29 30 31 32 33 34 35 36 37 38 39 40 41 42 43 44 45 46 47 48 49 50

451
ASUS44 KJAN 241703
RWRMS

MISSISSIPPI HOURLY WEATHER ROUNDUP
NATIONAL WEATHER SERVICE JACKSON MS
1100 AM CST MON NOV 24 2014

NOTE: "FAIR: INDICATES FEW OR NO CLOUDS BELOW 12,000 FEET WITH NO
SIGNIFICANT WEATHER AND/OR OBSTRUCTIONS TO VISIBILITY.

MSZ001>002-007>008-010>013-018>021-025>028-034>036-241800-
NORTHWEST MISSISSIPPI

CITY           SKY/WX    TMP DP  RH WIND       PRES   REMARKS
CLARKSDALE     FAIR      54  39  58 W13       29.94R
CLEVELAND      FAIR      55  39  54 NW9       29.94S
GREENWOOD      SUNNY     56  39  53 VRB7      29.95R
GREENVILLE     SUNNY     56  37  49 NW13      29.95R
GRENADA        FAIR      55  37  50 NW7       29.93S
OLIVE BRANCH   SUNNY     52  37  58 W9        29.87R
OXFORD         FAIR      54  32  43 W12G17    29.92S
TUNICA         SUNNY     54  36  50 W13       29.92R
$$

MSZ003>006-009-014>017-022>024-029>033-037>039-241800-
NORTHEAST MISSISSIPPI

CITY           SKY/WX    TMP DP  RH WIND       PRES   REMARKS
COLUMBUS AFB   MOSUNNY   60  42  53 W13       29.90S
CORINTH        FAIR      55  37  50 W15G22    29.86S
GOLDN TRIANGLE MOSUNNY   59  45  58 NW10      29.89R
STARKVILLE     FAIR      55  43  62 W8        29.91S
TUPELO         PTSUNNY   56  41  57 W12       29.89R
$$

MSZ040-058-241800-
CENTRAL MISSISSIPPI

CITY           SKY/WX    TMP DP  RH WIND       PRES   REMARKS
JACKSON INTL   PTSUNNY   60  42  51 NW9G16    29.95R
JACKSON HAWKNS SUNNY     58  42  55 W8        29.95S
MERIDIAN KEY   SUNNY     62  45  53 NW9G20    29.90R
MERIDIAN NAS   MOSUNNY   63  47  55 NW12      29.90S
RAYMOND        FAIR      57  54  88 NW6       29.95F
VICKSBURG      SUNNY     58  41  53 NW9       29.98R
$$

MSZ059>079-241800-
SOUTH MISSISSIPPI

CITY           SKY/WX    TMP DP  RH WIND       PRES   REMARKS
BROOKHAVEN     FAIR      57  45  62 NW8       29.96R
COLUMBIA       FAIR      64  50  59 MISG        N/A
HATTIESBURG    SUNNY     67  51  56 NW10      29.90S
MCCOMB         SUNNY     60  45  57 NW10      29.94R
NATCHEZ        SUNNY     57  41  54 N13G20    29.98S
PINE BELT      SUNNY     64  48  55 NW8       29.91S
$$

MSZ080>082-241800-
COASTAL MISSISSIPPI

CITY           SKY/WX    TMP DP  RH WIND       PRES   REMARKS
BAY ST LOUIS   MOSUNNY   73  54  49 NW12      29.88R
BILOXI         SUNNY     76  59  56 VRB5      29.85F
PASCAGOULA     SUNNY     77  58  51 NW9       29.84F
GULFPORT       SUNNY     74  57  55 N8        29.85F
$$



USA.gov is the U.S. government's official web portal to all federal, state and local government web resources and services.